Location: Neuvy Saint Sepulchre
(46.5953°N, 1.8122°E)
Time: 05:33:22
(UTC+01:00)

ISS - Pass Details

Date: 04 December 2023
Orbit: 416 x 417 km, 51.6° (Epoch: 01 December)

Event Time Altitude Azimuth Distance (km) Brightness Sun altitude
Rises 19:02:15 0° 290° (WNW) 2,359 1.0 -19.2°
Reaches altitude 10° 19:04:37 10° 275° (W) 1,493 0.1 -19.6°
Maximum altitude 19:07:20 23° 221° (SW) 932 -1.4 -20.1°
Enters shadow 19:09:53 11° 168° (SSE) 1,432 -1.1 -20.5°
